This is the latest recevied weather packets stored in our database for station/object KR0L-13. If no packets are shown the sender has not sent any weather packets the latest 10 day(s).
| Time | Temp. | Humidity | Pressure | Rain* | Wind** | Luminosity | Snow |
|---|---|---|---|---|---|---|---|
| 1777213222 | 13.33° C | 96% | 1008.8 hPa | 0 mm | - | - | - |
| 1777212622 | 13.33° C | 96% | 1008.9 hPa | 0 mm | - | - | - |
| 1777212022 | 13.33° C | 96% | 1008.9 hPa | 0 mm | - | - | - |
| 1777211422 | 12.78° C | 96% | 1009 hPa | 0 mm | - | - | - |
| 1777210822 | 12.78° C | 96% | 1008.9 hPa | 0 mm | - | - | - |
| 1777210222 | 12.22° C | 95% | 1008.9 hPa | 0 mm | - | - | - |
| 1777209621 | 12.22° C | 95% | 1009.2 hPa | 0 mm | - | - | - |
| 1777209021 | 12.22° C | 95% | 1009.2 hPa | 0 mm | - | - | - |
| 1777208421 | 12.22° C | 95% | 1009.3 hPa | 0 mm | - | - | - |
| 1777207822 | 12.22° C | 94% | 1009.5 hPa | 0 mm | - | - | - |
| 1777207222 | 12.22° C | 94% | 1009.6 hPa | 0 mm | - | - | - |
| 1777206621 | 12.78° C | 94% | 1009.6 hPa | 0 mm | - | - | - |
| 1777206021 | 12.78° C | 94% | 1009.6 hPa | 0 mm | - | - | - |
| 1777205421 | 12.78° C | 94% | 1009.4 hPa | 0 mm | - | - | - |
| 1777204821 | 12.78° C | 94% | 1009.3 hPa | 0 mm | - | - | - |
| 1777204221 | 12.78° C | 94% | 1009.3 hPa | 0 mm | - | - | - |
| 1777203621 | 12.78° C | 93% | 1009.2 hPa | 0 mm | - | - | - |
| 1777203021 | 13.33° C | 93% | 1009.2 hPa | 0 mm | - | - | - |
| 1777202421 | 13.33° C | 93% | 1009.1 hPa | 0 mm | - | - | - |
| 1777201821 | 13.89° C | 92% | 1009.2 hPa | 0 mm | - | - | - |
| 1777201221 | 14.44° C | 93% | 1009.2 hPa | 0 mm | - | - | - |
| 1777200622 | 15° C | 94% | 1009.2 hPa | 0 mm | - | - | - |
| 1777200021 | 15.56° C | 94% | 1009.4 hPa | 0 mm | - | - | - |
| 1777199421 | 15.56° C | 94% | 1009.3 hPa | 0 mm | - | - | - |
| 1777198821 | 15.56° C | 94% | 1009.5 hPa | 0 mm | - | - | - |
* Rain latest hour (hover to see other rain measurements)
** Current wind speed in m/s (hover to see current wind gust speed)